#ZEITBEREICH: 19.04.2023 bis 19.04.2024
Datum;Zeit;MGRH F AM1H [%];MGRH NO AM1H [�g/m�];MGRH NO2 AM1H [�g/m�];MGRH O3 AM1H [�g/m�];MGRH T AM1H [�C];MGRH WG SM1H [m/s];MGRH WR VM1H [�]
19.04.2023;01:00;68,8;<7;<10;57;10,9;4,0;55
19.04.2023;02:00;70,2;<7;<10;56;10,8;3,5;54
19.04.2023;03:00;72,3;<7;<10;54;10,7;3,0;50
19.04.2023;04:00;76,2;<7;<10;54;10,5;3,5;48
19.04.2023;05:00;77,3;<7;<10;55;10,5;3,4;49
19.04.2023;06:00;76,0;<7;<10;54;10,4;3,7;44
19.04.2023;07:00;72,9;<7;16;49;10,3;3,5;43
19.04.2023;08:00;65,4;<7;16;58;10,4;4,0;48
19.04.2023;09:00;59,0;<7;13;67;11,4;4,3;41
19.04.2023;10:00;51,8;<7;12;76;12,2;4,6;42
19.04.2023;11:00;44,6;<7;11;86;13,2;4,9;43
19.04.2023;12:00;39,8;<7;<10;91;13,4;5,3;45
19.04.2023;13:00;34,2;<7;<10;96;13,5;5,4;42
19.04.2023;14:00;33,3;<7;<10;99;13,9;5,0;47
19.04.2023;15:00;33,3;<7;<10;102;14,2;4,8;44
19.04.2023;16:00;32,8;<7;<10;104;14,5;5,5;42
19.04.2023;17:00;30,8;<7;<10;109;14,5;5,1;52
19.04.2023;18:00;30,8;<7;<10;110;14,3;5,3;49
19.04.2023;19:00;31,4;<7;<10;108;13,5;4,6;50
19.04.2023;20:00;32,9;<7;<10;104;12,4;4,5;45
19.04.2023;21:00;36,0;<7;<10;103;11,3;4,1;44
19.04.2023;22:00;40,3;<7;<10;97;10,3;3,2;43
19.04.2023;23:00;44,0;<7;<10;94;9,5;3,0;44
19.04.2023;24:00;46,6;;;;8,7;3,0;36
20.04.2023;01:00;46,0;<7;11;88;8,1;2,6;26
20.04.2023;02:00;48,1;<7;15;81;7,4;2,3;359
20.04.2023;03:00;48,7;<7;11;83;6,6;2,8;359
20.04.2023;04:00;49,1;<7;12;81;6,7;2,7;9
20.04.2023;05:00;51,2;<7;11;80;6,6;;
20.04.2023;06:00;56,1;<7;11;75;6,3;;
20.04.2023;07:00;58,9;<7;21;64;6,4;;
20.04.2023;08:00;62,0;<7;27;58;6,8;2,7;21
20.04.2023;09:00;67,0;<7;16;73;7,2;3,8;40
20.04.2023;10:00;71,4;<7;11;74;7,0;4,1;45
20.04.2023;11:00;72,5;<7;12;69;7,1;4,2;61
20.04.2023;12:00;75,2;<7;12;70;7,6;3,8;48
20.04.2023;13:00;68,4;<7;11;70;8,7;3,4;82
20.04.2023;14:00;68,8;<7;<10;76;9,0;3,0;98
20.04.2023;15:00;57,6;<7;<10;86;10,7;3,2;97
20.04.2023;16:00;47,4;<7;<10;96;12,0;3,8;81
20.04.2023;17:00;45,0;<7;<10;96;12,0;3,9;75
20.04.2023;18:00;45,4;<7;<10;95;12,0;4,1;58
20.04.2023;19:00;45,3;<7;<10;95;11,4;4,2;59
20.04.2023;20:00;57,1;<7;<10;91;10,2;4,5;73
20.04.2023;21:00;66,5;<7;<10;85;8,9;3,7;71
20.04.2023;22:00;74,2;<7;<10;80;8,2;2,9;49
20.04.2023;23:00;85,9;<7;12;68;7,3;2,6;64
20.04.2023;24:00;89,2;<7;12;62;7,1;2,5;58
21.04.2023;01:00;92,1;;;;6,9;2,1;40
21.04.2023;02:00;93,7;<7;<10;56;6,8;2,7;39
21.04.2023;03:00;93,1;<7;11;53;7,0;2,5;43
21.04.2023;04:00;93,7;<7;11;47;7,1;2,0;48
21.04.2023;05:00;94,3;<7;17;35;6,7;1,7;58
21.04.2023;06:00;95,3;<7;20;27;6,1;1,5;94
21.04.2023;07:00;95,0;<7;23;25;6,3;1,8;99
21.04.2023;08:00;90,5;<7;22;27;7,6;1,7;107
21.04.2023;09:00;82,6;<7;17;44;9,6;2,1;122
21.04.2023;10:00;77,0;<7;14;58;11,3;2,9;106
21.04.2023;11:00;72,7;<7;11;52;12,5;4,1;105
21.04.2023;12:00;66,1;<7;<10;62;14,2;4,2;101
21.04.2023;13:00;62,2;<7;<10;69;15,0;4,4;95
21.04.2023;14:00;57,4;<7;<10;76;16,1;4,5;89
21.04.2023;15:00;52,3;<7;<10;87;17,4;4,2;103
21.04.2023;16:00;52,6;<7;<10;87;17,4;4,4;111
21.04.2023;17:00;53,3;<7;<10;89;17,0;4,0;106
21.04.2023;18:00;74,1;<7;14;88;12,3;3,1;158
21.04.2023;19:00;89,4;<7;32;52;11,5;1,2;198
21.04.2023;20:00;89,8;<7;33;36;11,4;1,0;213
21.04.2023;21:00;88,5;<7;15;74;10,7;2,8;155
21.04.2023;22:00;91,5;<7;17;64;10,0;1,5;218
21.04.2023;23:00;93,6;<7;21;49;9,4;0,5;
21.04.2023;24:00;95,0;<7;17;46;8,6;1,3;110
22.04.2023;01:00;95,3;<7;17;37;7,9;0,6;
22.04.2023;02:00;96,2;;;;8,1;1,2;92
22.04.2023;03:00;95,3;<7;10;48;8,2;1,7;96
22.04.2023;04:00;95,1;<7;10;46;8,2;1,8;113
22.04.2023;05:00;94,5;<7;28;27;8,5;1,8;100
22.04.2023;06:00;94,6;<7;31;17;8,4;1,6;101
22.04.2023;07:00;94,1;<7;31;17;9,0;1,8;119
22.04.2023;08:00;85,9;<7;21;32;11,5;2,3;133
22.04.2023;09:00;73,2;<7;10;52;14,6;2,7;142
22.04.2023;10:00;64,8;<7;<10;63;16,6;3,0;144
22.04.2023;11:00;59,4;<7;<10;75;18,5;3,5;154
22.04.2023;12:00;56,5;<7;<10;81;20,0;3,5;170
22.04.2023;13:00;53,6;<7;<10;80;20,6;3,9;181
22.04.2023;14:00;54,8;<7;<10;81;19,8;4,0;209
22.04.2023;15:00;69,5;<7;13;67;17,4;2,1;204
22.04.2023;16:00;72,9;<7;12;68;16,6;2,0;219
22.04.2023;17:00;72,9;<7;12;66;16,3;2,0;213
22.04.2023;18:00;83,7;<7;<10;76;14,6;3,1;218
22.04.2023;19:00;91,7;<7;17;51;13,8;1,7;200
22.04.2023;20:00;91,0;<7;12;55;13,2;2,9;239
22.04.2023;21:00;91,3;<7;11;49;12,2;2,8;239
22.04.2023;22:00;89,3;<7;<10;48;11,1;2,5;263
22.04.2023;23:00;90,4;<7;<10;48;10,2;1,9;259
22.04.2023;24:00;91,8;<7;<10;44;9,5;1,3;258
23.04.2023;01:00;93,8;<7;<10;36;8,9;0,6;202
23.04.2023;02:00;95,2;<7;13;23;8,6;1,1;188
23.04.2023;03:00;95,5;;;;8,3;1,3;152
23.04.2023;04:00;95,7;<7;<10;34;8,4;1,6;154
23.04.2023;05:00;94,4;<7;<10;35;8,5;1,6;153
23.04.2023;06:00;94,6;<7;16;22;8,7;1,3;182
23.04.2023;07:00;93,3;<7;22;15;9,6;1,2;202
23.04.2023;08:00;87,0;<7;<10;38;11,4;1,5;198
23.04.2023;09:00;72,8;<7;<10;55;14,8;2,6;202
23.04.2023;10:00;65,8;<7;<10;69;16,1;3,1;203
23.04.2023;11:00;57,2;<7;<10;79;17,1;3,3;199
23.04.2023;12:00;54,2;<7;<10;81;17,7;3,8;196
23.04.2023;13:00;53,2;<7;<10;81;17,2;4,0;200
23.04.2023;14:00;50,8;<7;<10;82;17,9;3,0;191
23.04.2023;15:00;48,8;<7;<10;85;17,9;3,6;171
23.04.2023;16:00;60,0;<7;<10;78;16,0;3,1;176
23.04.2023;17:00;89,4;<7;<10;64;12,2;1,2;227
23.04.2023;18:00;90,3;<7;<10;64;12,2;1,6;135
23.04.2023;19:00;88,8;<7;<10;65;11,9;2,4;143
23.04.2023;20:00;86,1;<7;<10;68;11,8;3,6;159
23.04.2023;21:00;73,8;<7;<10;73;12,3;5,3;209
23.04.2023;22:00;78,7;<7;<10;77;11,1;4,3;222
23.04.2023;23:00;75,0;<7;<10;86;11,0;4,8;221
23.04.2023;24:00;74,7;<7;<10;89;11,0;3,5;219
24.04.2023;01:00;76,9;<7;<10;82;10,6;3,6;208
24.04.2023;02:00;78,2;<7;<10;88;9,8;4,0;227
24.04.2023;03:00;78,8;<7;<10;91;9,1;4,3;222
24.04.2023;04:00;79,7;;;;9,1;3,7;222
24.04.2023;05:00;79,2;<7;<10;86;9,1;4,2;222
24.04.2023;06:00;79,6;<7;<10;85;8,9;4,2;223
24.04.2023;07:00;85,0;<7;11;81;8,3;4,9;222
24.04.2023;08:00;89,9;<7;13;73;7,9;4,8;230
24.04.2023;09:00;90,6;<7;11;83;7,1;5,7;239
24.04.2023;10:00;92,6;<7;12;86;7,3;5,4;257
24.04.2023;11:00;93,5;<7;14;83;7,7;3,9;263
24.04.2023;12:00;90,8;<7;13;80;8,6;3,9;268
24.04.2023;13:00;80,0;<7;<10;82;10,2;4,4;264
24.04.2023;14:00;68,3;<7;13;82;10,7;4,3;272
24.04.2023;15:00;64,8;<7;11;81;11,0;4,4;270
24.04.2023;16:00;62,4;<7;12;82;11,3;4,2;268
24.04.2023;17:00;58,7;<7;10;85;11,6;3,8;277
24.04.2023;18:00;60,9;<7;11;81;11,4;3,1;280
24.04.2023;19:00;63,8;<7;<10;81;10,6;3,0;276
24.04.2023;20:00;68,4;<7;13;73;9,2;2,2;280
24.04.2023;21:00;77,3;<7;16;55;7,6;1,5;261
24.04.2023;22:00;81,1;<7;14;54;6,7;1,8;260
24.04.2023;23:00;81,5;<7;<10;65;6,3;2,2;273
24.04.2023;24:00;82,9;<7;<10;69;5,9;2,4;277
25.04.2023;01:00;83,1;<7;<10;69;5,6;2,1;270
25.04.2023;02:00;84,8;<7;<10;67;5,5;2,2;272
25.04.2023;03:00;84,0;<7;<10;68;5,8;2,0;275
25.04.2023;04:00;87,6;<7;<10;61;5,2;1,5;284
25.04.2023;05:00;86,7;;;;5,4;1,7;299
25.04.2023;06:00;86,6;;;54;5,4;2,1;295
25.04.2023;07:00;83,0;9;25;51;5,8;1,8;308
25.04.2023;08:00;78,1;<7;22;57;6,7;2,1;308
25.04.2023;09:00;70,3;<7;14;71;7,8;2,9;325
25.04.2023;10:00;58,7;<7;<10;83;9,1;3,0;325
25.04.2023;11:00;54,8;<7;<10;84;9,8;3,3;327
25.04.2023;12:00;56,2;<7;<10;81;9,4;3,0;329
25.04.2023;13:00;51,8;<7;<10;85;10,2;4,0;318
25.04.2023;14:00;47,8;<7;<10;90;10,2;3,5;316
25.04.2023;15:00;52,5;<7;<10;84;9,6;4,0;319
25.04.2023;16:00;49,8;<7;11;85;10,3;3,4;300
25.04.2023;17:00;47,2;<7;<10;89;10,7;4,3;319
25.04.2023;18:00;47,3;<7;<10;91;10,5;4,0;325
25.04.2023;19:00;48,1;<7;12;87;9,6;3,1;315
25.04.2023;20:00;53,8;<7;<10;83;8,6;3,9;334
25.04.2023;21:00;62,8;<7;13;73;7,0;2,4;328
25.04.2023;22:00;69,7;<7;24;53;5,7;1,6;329
25.04.2023;23:00;75,6;<7;26;43;4,5;1,2;311
25.04.2023;24:00;81,5;<7;16;44;3,5;1,2;286
26.04.2023;01:00;83,3;<7;14;45;2,9;1,1;282
26.04.2023;02:00;85,8;<7;12;45;2,3;1,0;279
26.04.2023;03:00;87,7;<7;11;45;1,7;1,1;288
26.04.2023;04:00;89,2;<7;13;38;1,5;1,1;292
26.04.2023;05:00;91,3;<7;31;17;0,6;1,0;265
26.04.2023;06:00;92,7;19;41;;0,4;0,9;260
26.04.2023;07:00;89,9;;;14;1,9;1,1;229
26.04.2023;08:00;78,2;9;27;38;4,8;1,1;234
26.04.2023;09:00;73,7;<7;22;54;6,2;1,5;229
26.04.2023;10:00;64,7;<7;11;80;7,2;1,5;226
26.04.2023;11:00;59,6;<7;<10;84;7,8;1,4;232
26.04.2023;12:00;54,3;<7;<10;88;8,5;1,8;284
26.04.2023;13:00;51,6;<7;<10;88;9,1;1,4;254
26.04.2023;14:00;49,1;<7;<10;89;9,6;1,6;300
26.04.2023;15:00;47,1;<7;<10;90;9,7;1,6;313
26.04.2023;16:00;45,1;<7;<10;93;10,0;1,6;320
26.04.2023;17:00;43,5;<7;<10;95;10,5;2,4;341
26.04.2023;18:00;45,4;<7;<10;91;10,4;2,4;348
26.04.2023;19:00;46,8;<7;<10;91;10,0;2,6;1
26.04.2023;20:00;50,8;<7;11;86;9,1;2,6;3
26.04.2023;21:00;53,3;<7;14;80;8,7;1,5;15
26.04.2023;22:00;55,3;<7;14;76;8,3;1,6;19
26.04.2023;23:00;58,7;<7;19;65;8,0;1,4;31
26.04.2023;24:00;61,6;<7;21;59;7,5;1,6;21
27.04.2023;01:00;67,4;<7;25;49;6,4;1,6;23
27.04.2023;02:00;71,5;<7;29;40;5,8;1,7;15
27.04.2023;03:00;72,7;<7;24;46;5,4;1,9;18
27.04.2023;04:00;76,1;<7;28;41;4,6;1,9;24
27.04.2023;05:00;78,8;<7;33;33;4,0;1,9;34
27.04.2023;06:00;80,2;<7;34;32;3,7;1,9;41
27.04.2023;07:00;77,2;11;37;;4,6;1,8;43
27.04.2023;08:00;68,7;;;43;6,6;2,2;56
27.04.2023;09:00;61,6;7;28;55;8,7;2,1;74
27.04.2023;10:00;53,2;<7;17;76;10,3;2,5;92
27.04.2023;11:00;47,9;<7;12;86;11,3;2,3;89
27.04.2023;12:00;45,0;<7;<10;90;12,0;2,5;108
27.04.2023;13:00;40,9;<7;<10;96;12,3;2,5;128
27.04.2023;14:00;39,9;<7;<10;98;12,8;2,0;104
27.04.2023;15:00;36,6;<7;10;107;13,4;1,6;146
27.04.2023;16:00;37,0;<7;11;107;14,0;2,2;111
27.04.2023;17:00;36,9;<7;15;106;14,0;2,5;62
27.04.2023;18:00;37,3;<7;14;117;14,0;2,2;68
27.04.2023;19:00;40,9;<7;18;103;13,6;1,9;48
27.04.2023;20:00;45,3;<7;20;90;12,9;2,1;46
27.04.2023;21:00;47,0;<7;19;83;12,3;2,2;53
27.04.2023;22:00;49,1;<7;21;75;11,7;2,3;55
27.04.2023;23:00;51,2;<7;22;70;11,2;2,3;59
27.04.2023;24:00;55,2;<7;20;67;10,7;2,1;61
28.04.2023;01:00;69,7;<7;21;57;9,7;1,9;54
28.04.2023;02:00;72,0;<7;21;53;9,6;1,7;57
28.04.2023;03:00;82,8;<7;21;46;9,0;1,9;67
28.04.2023;04:00;87,1;<7;20;42;8,9;1,7;88
28.04.2023;05:00;88,6;<7;18;45;9,2;2,2;101
28.04.2023;06:00;89,1;<7;18;50;9,4;1,8;104
28.04.2023;07:00;91,4;<7;23;49;9,5;2,1;114
28.04.2023;08:00;86,8;<7;27;46;10,4;2,1;146
28.04.2023;09:00;87,9;;;48;11,2;2,0;157
28.04.2023;10:00;89,0;<7;23;41;12,3;1,8;171
28.04.2023;11:00;92,5;<7;25;31;13,0;1,8;187
28.04.2023;12:00;90,2;8;18;28;14,2;2,3;245
28.04.2023;13:00;80,3;<7;12;35;16,4;2,5;257
28.04.2023;14:00;71,3;<7;<10;44;18,4;3,1;254
28.04.2023;15:00;65,0;<7;11;49;19,3;3,5;263
28.04.2023;16:00;64,9;<7;10;50;19,0;4,2;269
28.04.2023;17:00;68,9;<7;10;46;16,7;4,3;273
28.04.2023;18:00;73,0;<7;12;42;15,5;3,2;270
28.04.2023;19:00;76,3;<7;11;41;14,8;3,1;264
28.04.2023;20:00;79,0;<7;14;37;14,4;1,9;257
28.04.2023;21:00;81,1;<7;12;36;14,0;2,1;259
28.04.2023;22:00;86,5;<7;<10;41;13,4;2,8;255
28.04.2023;23:00;93,7;<7;<10;;12,4;2,6;261
28.04.2023;24:00;92,9;<7;<10;44;11,9;2,8;281
29.04.2023;01:00;89,9;<7;<10;53;11,2;2,6;274
29.04.2023;02:00;88,3;<7;<10;68;10,7;3,0;285
29.04.2023;03:00;90,2;<7;<10;62;10,2;2,8;278
29.04.2023;04:00;92,1;<7;<10;52;9,6;2,7;305
29.04.2023;05:00;91,9;<7;11;50;9,1;2,4;305
29.04.2023;06:00;94,1;<7;10;47;8,8;1,9;292
29.04.2023;07:00;94,5;<7;12;47;8,9;1,8;299
29.04.2023;08:00;92,4;<7;13;50;9,2;2,1;310
29.04.2023;09:00;89,2;<7;13;57;9,4;2,0;315
29.04.2023;10:00;84,7;;;60;10,4;2,0;307
29.04.2023;11:00;81,3;<7;12;67;10,6;3,0;336
29.04.2023;12:00;82,2;<7;12;65;10,7;2,4;330
29.04.2023;13:00;79,3;<7;<10;70;11,3;2,5;346
29.04.2023;14:00;73,6;<7;<10;75;12,6;2,0;340
29.04.2023;15:00;66,9;<7;<10;83;13,7;1,9;336
29.04.2023;16:00;66,3;<7;<10;86;13,5;2,4;343
29.04.2023;17:00;65,6;<7;<10;85;13,8;2,0;346
29.04.2023;18:00;64,0;<7;<10;87;14,1;1,5;335
29.04.2023;19:00;65,1;<7;11;83;14,0;1,5;331
29.04.2023;20:00;69,4;<7;34;53;13,3;1,1;356
29.04.2023;21:00;76,5;<7;34;37;12,1;0,7;332
29.04.2023;22:00;80,7;<7;40;29;11,1;0,8;323
29.04.2023;23:00;82,2;<7;29;33;10,7;1,4;343
29.04.2023;24:00;75,7;<7;20;;10,8;2,1;18
30.04.2023;01:00;77,6;<7;26;44;9,8;2,0;17
30.04.2023;02:00;80,9;<7;21;46;8,8;2,1;23
30.04.2023;03:00;83,8;<7;18;49;8,1;2,1;29
30.04.2023;04:00;86,7;<7;14;51;7,4;2,2;24
30.04.2023;05:00;88,0;<7;14;50;7,1;2,2;36
30.04.2023;06:00;89,7;<7;17;41;6,7;1,8;35
30.04.2023;07:00;87,5;<7;17;42;7,4;1,8;30
30.04.2023;08:00;78,2;<7;13;47;9,4;1,8;48
30.04.2023;09:00;69,6;<7;14;62;11,8;1,3;57
30.04.2023;10:00;62,2;<7;<10;68;13,8;1,7;66
30.04.2023;11:00;55,5;;;78;15,2;2,3;59
30.04.2023;12:00;54,8;<7;<10;81;16,0;2,6;61
30.04.2023;13:00;52,6;<7;<10;86;16,4;2,4;44
30.04.2023;14:00;49,7;<7;<10;91;17,0;2,7;27
30.04.2023;15:00;47,3;<7;<10;96;17,4;2,9;34
30.04.2023;16:00;45,7;<7;<10;98;17,9;3,2;44
30.04.2023;17:00;44,7;<7;<10;98;18,1;3,4;38
30.04.2023;18:00;44,7;<7;<10;96;17,8;3,4;31
30.04.2023;19:00;45,8;<7;<10;91;17,2;3,5;39
30.04.2023;20:00;49,3;<7;<10;85;16,0;2,9;37
30.04.2023;21:00;54,0;<7;11;78;14,7;2,4;35
30.04.2023;22:00;57,0;<7;13;74;13,9;2,6;35
30.04.2023;23:00;60,0;<7;13;68;13,1;2,3;40
30.04.2023;24:00;64,5;<7;15;62;12,0;2,0;49
01.05.2023;01:00;68,7;<7;21;;11,1;1,6;66
01.05.2023;02:00;72,5;<7;18;43;10,5;1,2;101
01.05.2023;03:00;75,1;<7;18;36;10,0;1,1;102
01.05.2023;04:00;74,3;<7;15;39;9,9;1,2;87
01.05.2023;05:00;74,3;<7;18;36;9,7;1,3;101
01.05.2023;06:00;77,6;<7;19;30;9,3;1,3;114
01.05.2023;07:00;72,1;<7;16;40;10,8;1,8;127
01.05.2023;08:00;69,9;<7;16;40;12,0;2,0;138
01.05.2023;09:00;64,1;<7;12;50;13,5;1,9;141
01.05.2023;10:00;58,2;<7;12;54;15,6;1,1;168
01.05.2023;11:00;52,2;<7;<10;65;17,7;1,5;258
01.05.2023;12:00;51,6;;;67;18,4;1,6;249
01.05.2023;13:00;47,8;<7;<10;82;19,2;1,8;232
01.05.2023;14:00;47,2;<7;10;84;18,8;2,0;274
01.05.2023;15:00;45,6;<7;<10;88;18,9;2,5;283
01.05.2023;16:00;59,1;<7;13;80;16,1;2,2;295
01.05.2023;17:00;67,3;<7;13;76;15,0;2,3;302
01.05.2023;18:00;89,7;<7;13;64;12,1;1,2;203
01.05.2023;19:00;85,6;<7;14;61;12,8;1,9;219
01.05.2023;20:00;86,9;<7;22;46;11,9;1,6;247
01.05.2023;21:00;93,3;<7;25;26;11,0;1,5;263
01.05.2023;22:00;92,2;<7;17;30;11,2;1,6;269
01.05.2023;23:00;91,6;<7;14;40;10,6;2,1;288
01.05.2023;24:00;88,0;<7;10;60;10,4;2,2;294
02.05.2023;01:00;91,4;<7;<10;54;9,4;1,9;284
02.05.2023;02:00;91,9;<7;<10;;9,5;2,4;295
02.05.2023;03:00;91,1;<7;<10;62;9,8;2,1;289
02.05.2023;04:00;90,7;<7;<10;57;10,0;1,5;279
02.05.2023;05:00;88,8;<7;10;57;10,1;1,7;288
02.05.2023;06:00;88,1;<7;15;54;10,0;1,8;292
02.05.2023;07:00;91,5;8;23;42;9,9;1,7;299
02.05.2023;08:00;86,5;<7;16;51;10,1;2,9;328
02.05.2023;09:00;77,0;<7;<10;66;10,7;3,3;332
02.05.2023;10:00;73,1;<7;<10;68;10,6;3,4;338
02.05.2023;11:00;73,1;<7;10;70;10,1;3,8;351
02.05.2023;12:00;64,0;<7;<10;81;11,1;3,3;338
02.05.2023;13:00;56,7;;;88;12,3;3,6;338
02.05.2023;14:00;53,8;<7;<10;90;12,4;4,1;340
02.05.2023;15:00;51,3;<7;<10;92;12,4;3,3;338
02.05.2023;16:00;50,3;<7;<10;93;12,6;2,7;340
02.05.2023;17:00;48,5;<7;<10;97;12,8;2,6;346
02.05.2023;18:00;47,4;<7;<10;101;13,2;2,3;5
02.05.2023;19:00;49,1;<7;<10;101;12,7;2,7;17
02.05.2023;20:00;51,1;<7;<10;98;11,6;2,7;14
02.05.2023;21:00;56,9;<7;13;86;10,3;2,4;12
02.05.2023;22:00;61,5;<7;16;76;9,2;1,8;13
02.05.2023;23:00;64,7;<7;15;69;8,3;;
02.05.2023;24:00;67,2;<7;18;60;7,6;1,9;25
03.05.2023;01:00;69,8;<7;19;53;6,9;1,6;48
03.05.2023;02:00;71,8;<7;18;50;6,3;1,5;46
03.05.2023;03:00;75,5;<7;19;;5,6;1,6;27
03.05.2023;04:00;76,3;<7;23;39;5,4;1,8;33
03.05.2023;05:00;79,0;<7;28;30;4,9;2,0;45
03.05.2023;06:00;80,2;<7;28;28;4,6;2,0;35
03.05.2023;07:00;76,5;13;34;26;5,5;1,8;45
03.05.2023;08:00;66,4;12;31;35;8,0;1,8;68
03.05.2023;09:00;58,9;9;24;48;10,2;2,3;72
03.05.2023;10:00;53,0;<7;14;66;11,8;2,3;120
03.05.2023;11:00;50,1;<7;11;73;12,7;2,6;104
03.05.2023;12:00;46,4;<7;<10;81;13,2;2,8;75
03.05.2023;13:00;44,8;<7;<10;86;14,0;2,3;77
03.05.2023;14:00;42,9;;;86;14,9;2,6;56
03.05.2023;15:00;43,0;<7;<10;88;15,2;3,0;47
03.05.2023;16:00;41,5;<7;11;90;15,9;2,7;61
03.05.2023;17:00;40,7;<7;11;92;16,2;2,9;35
03.05.2023;18:00;40,7;<7;11;93;16,3;3,0;32
03.05.2023;19:00;42,0;<7;11;92;15,9;3,1;42
03.05.2023;20:00;46,3;<7;16;83;14,8;2,6;36
03.05.2023;21:00;51,3;<7;18;76;13,5;2,3;42
03.05.2023;22:00;54,1;<7;15;76;12,6;2,7;40
03.05.2023;23:00;56,0;<7;16;73;11,7;2,4;34
03.05.2023;24:00;59,8;<7;17;65;10,8;2,5;35
04.05.2023;01:00;63,9;<7;18;59;9,8;1,9;35
04.05.2023;02:00;67,8;<7;19;53;9,0;2,1;42
04.05.2023;03:00;71,2;<7;19;47;8,4;2,1;49
04.05.2023;04:00;73,4;<7;21;;8,0;2,1;56
04.05.2023;05:00;74,6;<7;28;34;7,7;1,8;63
04.05.2023;06:00;75,1;<7;36;26;7,5;1,9;68
04.05.2023;07:00;69,6;<7;30;35;8,9;2,0;103
04.05.2023;08:00;61,9;<7;21;49;11,6;2,5;111
04.05.2023;09:00;56,1;<7;22;53;13,7;3,0;118
04.05.2023;10:00;51,5;<7;22;57;15,8;3,1;108
04.05.2023;11:00;49,9;<7;20;64;17,8;3,5;114
04.05.2023;12:00;46,3;<7;20;75;19,3;4,5;122
04.05.2023;13:00;41,0;<7;14;93;20,6;5,1;125
04.05.2023;14:00;36,8;<7;11;103;21,4;4,8;123
04.05.2023;15:00;34,6;;;102;22,0;4,4;122
04.05.2023;16:00;34,7;<7;13;108;22,6;4,3;117
04.05.2023;17:00;33,0;<7;<10;116;22,8;4,0;115
04.05.2023;18:00;31,3;<7;11;115;22,6;3,5;117
04.05.2023;19:00;34,5;<7;12;110;22,2;3,3;121
04.05.2023;20:00;38,6;<7;11;109;21,1;2,6;117
04.05.2023;21:00;45,0;<7;18;97;19,2;2,4;135
04.05.2023;22:00;48,7;<7;14;95;18,1;2,4;151
04.05.2023;23:00;50,0;<7;13;93;17,5;2,3;157
04.05.2023;24:00;52,3;<7;11;89;17,4;2,1;154
05.05.2023;01:00;59,2;<7;12;75;16,7;1,5;203
05.05.2023;02:00;68,8;<7;13;57;15,5;1,4;243
05.05.2023;03:00;77,3;<7;12;48;14,6;1,4;251
05.05.2023;04:00;81,5;<7;15;43;14,4;1,3;255
05.05.2023;05:00;86,8;7;32;;13,2;1,2;239
05.05.2023;06:00;87,6;<7;30;24;12,9;1,4;238
05.05.2023;07:00;84,1;11;35;21;13,8;1,1;244
05.05.2023;08:00;72,8;<7;25;43;16,8;1,6;241
05.05.2023;09:00;68,4;<7;19;63;18,0;1,8;249
05.05.2023;10:00;63,9;<7;12;79;19,1;1,9;242
05.05.2023;11:00;59,6;<7;13;83;19,8;1,6;251
05.05.2023;12:00;55,7;<7;14;84;20,3;2,1;239
05.05.2023;13:00;64,6;<7;16;75;18,6;2,5;239
05.05.2023;14:00;61,4;<7;14;77;19,0;2,5;233
05.05.2023;15:00;58,8;<7;13;76;19,4;2,7;244
05.05.2023;16:00;65,7;;;70;17,6;3,0;263
05.05.2023;17:00;75,0;<7;11;74;16,4;3,0;335
05.05.2023;18:00;80,6;<7;11;74;15,1;3,1;7
05.05.2023;19:00;91,5;<7;13;64;13,3;2,1;357
05.05.2023;20:00;93,4;<7;12;58;12,9;1,1;111
05.05.2023;21:00;95,2;<7;19;36;12,4;0,6;
05.05.2023;22:00;96,1;<7;31;14;11,8;0,6;190
05.05.2023;23:00;96,7;<7;29;11;11,3;0,9;196
05.05.2023;24:00;97,0;<7;23;19;11,3;0,7;179
06.05.2023;01:00;97,1;<7;18;25;11,4;1,0;115
06.05.2023;02:00;96,9;<7;17;20;10,8;1,0;146
06.05.2023;03:00;97,2;<7;14;17;10,2;0,9;184
06.05.2023;04:00;97,3;<7;21;7;9,6;0,9;207
06.05.2023;05:00;97,5;<7;19;7;9,3;0,8;227
06.05.2023;06:00;97,5;8;24;;9,3;0,7;196
06.05.2023;07:00;97,7;14;26;8;10,4;0,5;
06.05.2023;08:00;86,5;7;20;24;13,7;0,8;206
06.05.2023;09:00;76,3;<7;14;44;15,7;0,9;202
06.05.2023;10:00;70,4;<7;10;60;17,0;1,4;165
06.05.2023;11:00;66,8;<7;<10;65;18,2;1,5;159
06.05.2023;12:00;61,5;<7;<10;77;19,2;1,6;167
06.05.2023;13:00;58,4;<7;<10;83;19,7;1,5;184
06.05.2023;14:00;55,5;<7;<10;87;20,1;1,4;167
06.05.2023;15:00;57,0;<7;<10;84;19,7;1,3;176
06.05.2023;16:00;80,2;<7;13;62;16,4;2,5;213
06.05.2023;17:00;86,3;;;63;15,6;1,0;111
06.05.2023;18:00;83,8;<7;<10;58;16,2;1,6;116
06.05.2023;19:00;86,5;<7;25;33;16,2;0,3;
06.05.2023;20:00;88,0;<7;23;30;15,7;0,5;
06.05.2023;21:00;89,7;<7;25;24;15,0;0,2;
06.05.2023;22:00;90,3;<7;23;25;14,8;1,1;136
06.05.2023;23:00;88,8;<7;21;24;15,1;1,6;60
06.05.2023;24:00;91,7;<7;21;20;14,5;1,0;77
07.05.2023;01:00;92,1;<7;23;22;14,3;1,3;109
07.05.2023;02:00;89,6;<7;18;28;14,4;1,3;94
07.05.2023;03:00;90,8;<7;17;24;14,0;1,2;108
07.05.2023;04:00;91,6;<7;18;20;13,7;1,3;95
07.05.2023;05:00;92,8;<7;19;16;13,4;1,5;108
07.05.2023;06:00;93,7;<7;20;12;13,2;1,0;103
07.05.2023;07:00;91,4;<7;18;;13,8;1,3;110
07.05.2023;08:00;85,4;9;16;21;15,3;1,3;121
07.05.2023;09:00;78,3;8;14;31;17,2;1,5;118
07.05.2023;10:00;73,6;8;13;39;18,5;1,5;112
07.05.2023;11:00;67,9;7;12;50;19,6;1,5;89
07.05.2023;12:00;63,3;<7;<10;67;20,1;1,5;68
07.05.2023;13:00;57,3;<7;<10;77;20,7;1,3;69
07.05.2023;14:00;54,4;<7;11;80;20,9;1,5;358
07.05.2023;15:00;59,3;<7;19;68;20,5;1,9;318
07.05.2023;16:00;89,9;10;19;48;16,4;1,7;277
07.05.2023;17:00;91,3;<7;14;45;17,1;1,3;334
07.05.2023;18:00;86,6;;;48;17,7;1,3;338
07.05.2023;19:00;86,0;<7;16;44;17,5;1,4;348
07.05.2023;20:00;90,9;8;22;26;16,7;1,3;349
07.05.2023;21:00;92,2;<7;18;23;16,3;1,5;8
07.05.2023;22:00;90,4;<7;15;35;16,2;1,5;4
07.05.2023;23:00;91,4;<7;15;31;15,7;1,1;32
07.05.2023;24:00;93,3;<7;15;23;15,4;1,0;26
08.05.2023;01:00;95,7;<7;16;9;15,0;0,5;
08.05.2023;02:00;96,5;<7;14;8;14,6;0,6;
08.05.2023;03:00;96,9;<7;11;13;14,2;0,9;145
08.05.2023;04:00;97,2;<7;<10;11;14,0;0,5;
08.05.2023;05:00;97,3;<7;16;6;13,3;0,8;180
08.05.2023;06:00;97,6;12;23;<4;13,0;0,9;148
08.05.2023;07:00;97,7;14;24;10;13,6;1,3;139
08.05.2023;08:00;90,0;<7;18;27;15,9;1,6;165
08.05.2023;09:00;82,0;<7;13;38;17,4;2,2;163
08.05.2023;10:00;78,8;<7;<10;46;18,1;1,8;151
08.05.2023;11:00;73,4;<7;<10;64;18,7;1,9;129
08.05.2023;12:00;69,4;<7;<10;67;19,9;2,0;128
08.05.2023;13:00;66,8;<7;<10;67;20,3;2,5;115
08.05.2023;14:00;70,1;<7;12;61;19,7;2,2;120
08.05.2023;15:00;75,4;<7;18;56;18,6;2,0;192
08.05.2023;16:00;87,6;<7;15;55;17,1;1,1;229
08.05.2023;17:00;81,2;<7;13;55;18,2;1,3;
08.05.2023;18:00;72,7;<7;10;57;19,0;2,6;113
08.05.2023;19:00;74,5;;;51;18,6;1,6;132
08.05.2023;20:00;77,0;<7;18;48;17,9;1,1;119
08.05.2023;21:00;83,1;<7;19;38;16,7;1,2;120
08.05.2023;22:00;86,3;<7;20;31;16,0;1,6;140
08.05.2023;23:00;88,7;<7;17;;15,4;1,1;153
08.05.2023;24:00;90,8;<7;13;24;15,0;0,9;160
09.05.2023;01:00;92,2;<7;12;20;15,0;0,9;248
09.05.2023;02:00;90,8;<7;12;25;15,1;1,7;270
09.05.2023;03:00;92,5;<7;<10;21;14,8;0,8;234
09.05.2023;04:00;92,7;<7;<10;22;14,5;0,7;235
09.05.2023;05:00;92,8;<7;11;19;14,3;0,8;171
09.05.2023;06:00;93,4;<7;16;16;14,3;1,1;150
09.05.2023;07:00;91,3;;;;15,1;1,1;152
09.05.2023;08:00;88,8;9;20;18;15,8;1,3;177
09.05.2023;09:00;81,1;<7;12;30;17,3;2,0;166
09.05.2023;10:00;73,3;<7;11;41;18,8;2,3;166
09.05.2023;11:00;69,0;<7;<10;48;19,3;2,5;193
09.05.2023;12:00;68,8;<7;11;50;19,3;1,9;211
09.05.2023;13:00;70,5;<7;11;52;19,0;1,9;217
09.05.2023;14:00;84,8;8;17;35;17,2;2,0;269
09.05.2023;15:00;85,9;7;15;34;17,0;2,1;248
09.05.2023;16:00;90,7;<7;17;35;16,1;1,9;254
09.05.2023;17:00;93,6;10;23;34;15,0;1,7;258
09.05.2023;18:00;94,6;9;17;38;14,1;1,8;252
09.05.2023;19:00;95,8;<7;14;34;13,8;1,0;237
09.05.2023;20:00;95,9;<7;11;37;13,4;1,8;237
09.05.2023;21:00;95,9;<7;<10;44;12,6;2,1;233
09.05.2023;22:00;96,4;<7;12;35;12,5;1,8;238
09.05.2023;23:00;96,7;<7;11;30;12,5;1,9;244
09.05.2023;24:00;96,9;<7;<10;29;12,6;1,7;248
10.05.2023;01:00;97,1;<7;<10;30;12,7;1,7;252
10.05.2023;02:00;97,0;<7;<10;50;12,4;1,8;277
10.05.2023;03:00;97,2;<7;<10;55;12,2;1,1;270
10.05.2023;04:00;97,4;<7;<10;38;12,2;1,0;238
10.05.2023;05:00;97,6;<7;11;33;12,4;1,6;245
10.05.2023;06:00;97,1;<7;11;37;12,4;1,8;245
10.05.2023;07:00;96,3;8;16;32;12,3;1,8;249
10.05.2023;08:00;96,3;;;29;12,5;2,0;252
10.05.2023;09:00;93,9;8;18;31;13,3;2,0;262
10.05.2023;10:00;88,4;7;17;40;13,6;2,5;268
10.05.2023;11:00;86,3;7;18;42;13,9;2,3;254
10.05.2023;12:00;84,5;<7;15;46;14,2;2,3;261
10.05.2023;13:00;83,2;8;20;44;14,6;1,8;268
10.05.2023;14:00;83,0;<7;16;50;14,8;1,9;266
10.05.2023;15:00;76,3;<7;15;62;15,5;2,2;240
10.05.2023;16:00;72,9;<7;15;66;16,1;2,6;239
10.05.2023;17:00;73,4;<7;14;67;16,1;2,6;236
10.05.2023;18:00;76,6;<7;16;61;15,3;2,7;284
10.05.2023;19:00;83,7;<7;15;64;13,9;2,7;335
10.05.2023;20:00;85,6;<7;16;58;13,4;0,8;
10.05.2023;21:00;88,0;<7;21;42;12,9;0,2;
10.05.2023;22:00;91,9;<7;25;25;12,0;0,4;
10.05.2023;23:00;94,7;8;28;;11,7;0,5;257
10.05.2023;24:00;94,1;<7;14;27;12,1;1,1;266
11.05.2023;01:00;95,1;<7;<10;40;11,8;1,2;265
11.05.2023;02:00;96,4;<7;<10;39;11,6;1,1;233
11.05.2023;03:00;96,8;<7;<10;37;11,6;0,9;210
11.05.2023;04:00;97,0;<7;<10;36;11,5;1,6;266
11.05.2023;05:00;97,2;<7;11;29;11,4;0,4;
11.05.2023;06:00;97,5;<7;18;19;11,6;0,5;
11.05.2023;07:00;97,1;11;23;24;11,9;1,0;270
11.05.2023;08:00;92,7;<7;19;38;12,5;1,6;287
11.05.2023;09:00;90,2;;;35;13,0;1,4;273
11.05.2023;10:00;87,0;<7;18;39;13,6;1,8;271
11.05.2023;11:00;81,8;<7;15;51;14,3;1,9;281
11.05.2023;12:00;76,7;<7;14;58;15,1;1,8;278
11.05.2023;13:00;77,3;<7;15;52;15,0;2,1;264
11.05.2023;14:00;73,3;<7;13;58;16,0;2,4;261
11.05.2023;15:00;71,0;<7;13;63;16,3;2,4;280
11.05.2023;16:00;67,7;<7;12;72;16,7;2,1;299
11.05.2023;17:00;71,5;<7;12;72;16,1;2,8;329
11.05.2023;18:00;71,5;<7;12;73;16,0;2,6;341
11.05.2023;19:00;83,4;<7;17;62;14,7;2,1;19
11.05.2023;20:00;89,7;<7;18;57;13,5;1,0;
11.05.2023;21:00;93,7;<7;23;36;12,9;0,3;